Location: Bishop's University Astronomical Observatory
(45.3661°N, 71.8475°W)
Time: 15:28:19
(UTC-04:00)

CZ-4C R/B - Visible Passes

Search period start: 16 September 2014 00:00
Search period end: 26 September 2014 00:00
Orbit: 788 x 1215 km, 63.4° (Epoch: 16 September)

Date Brightness Start Highest point End Pass type
(mag) Time Alt. Az. Time Alt. Az. Time Alt. Az.
20 Sep 4.8 05:28:55 10° SSE 05:32:29 18° ESE 05:36:13 10° ENE visible
21 Sep 3.7 06:00:24 10° S 06:05:30 40° ESE 06:11:02 10° NE visible
22 Sep 4.9 04:48:43 10° SE 04:51:28 14° ESE 04:54:18 10° ENE visible
23 Sep 3.9 05:19:33 10° S 05:24:24 33° ESE 05:29:38 10° NE visible
24 Sep 5.0 04:09:14 10° ESE 04:10:28 11° ESE 04:11:43 10° E visible
24 Sep 2.6 05:52:12 10° SSW 05:57:41 72° SE 06:03:44 10° NE visible
25 Sep 4.1 04:38:48 10° SSE 04:43:19 27° ESE 04:48:10 10° ENE visible
